COSMOS 2491 DEB, 57570

Orbit data source: Space-Track

COSMOS 2491 DEB, 57570 is space debris in LEO originally from a launch on Wed, 25 Dec 2013 UTC launched from the Plesetsk Missile And Space Complex (PKMTR). Debris objects in space refer to the collection of defunct objects orbiting the Earth. Examples of debris include non-operational satellites, rocket bodies, and fragments generated from explosions, collisions, or faulty payload assembly.

Loading next visibility...
Identifier
57570, 2013-076BH
Orbit
LEO
Country
Flag of CISCIS
Related business
Manufacturer
TsNIIKhM
Mission
Spacecraft
Bus & Motor
Unknown
Mass
Unknown
Launch date (UTC)
2013-12-25 (13 years ago)
Launch vehicle
Unknown
Launch site
Plesetsk Missile And Space Complex (PKMTR)
Object type
Payload
Rocket body
Debris
Shape & HBR
Unknown shape, 0.1 m
Radar Cross Section
Medium (>0.1 m² and <1 m²)

Expand to show TLE details & history
Last TLE update: 1 day ago

TLE from 1 day ago
0 COSMOS 2491 DEB
1 57570U 13076BH  26255.27179325  .00001488  00000-0  90417-2 0  9991
2 57570  82.4587  94.3100 0107291  39.3198 321.5616 12.53915675152758
Epoch: 2026-09-12T06:31Z
TLE epoch observation values (Epoch: 2026-09-12T06:31:22.936Z)
Latitude
-0.00006°
Longitude
5.18124°
Altitude
1,385.444 km
Speed
7.197 km/s
True Right ascension
06h 17m 14s
True Declination
0° 00' 00"
Sunlit
Object was in daylight at epoch
Visualization orbit readout
Latitude
Unknown
Longitude
Unknown
Altitude
Unknown
Speed
Unknown
Apparent Right ascension
Unknown
Apparent Declination
Unknown
Sunlit
N/A
Visualization observer readout
Local Sidereal Time
00:07:10
Azimuth
Unknown
Elevation
Unknown
Doppler factor
Unknown
Orbital elements
Apogee altitude
1,529.437 km
Perigee altitude
1,361.555 km
Semi-major axis
7,823.633 km
Eccentricity
0.01073
Inclination
82.4587°
RAAN
94.31°
Arg. of periapsis
39.3198°
True anomaly
320.78919°
Mean anomaly
321.5616°
Eccentric anomaly
321.17621°
Mean motion
3.13639 °/min
Orbital period
114.78 mins
BSTAR
0.0090417
Loading maneuver chart data...
Computing Atmospheric mass density...
Loading historical data...
Loading historical data...
Loading historical data...
Loading historical data...
Loading historical data...
Loading historical data...
Loading historical data...

Documentation

Showing up to 5 results
|